SHT3A EGCC-EGLL

Flight info

Callsign SHT3A
Flight time 0h 38m
Altitude 19000
Route LISTO L612 HON
Aircraft A20N/M-SDE2E3FGHIRWXY/LB1

Departure

Time 2026-05-06 16:36
Airport Manchester Airport (EGCC)

Arrival

Time 2026-05-06 17:14
Airport London Heathrow Airport (EGLL)
Time Latitude Longitude Altitude Speed Heading
2026-05-06 16:05 53.36951 -2.28700 232 ft 0 kts 135°
2026-05-06 16:20 53.36953 -2.28704 235 ft 1 kts 135°
2026-05-06 16:21 53.36959 -2.28713 235 ft 1 kts 135°
2026-05-06 16:21 53.36965 -2.28723 237 ft 1 kts 135°
2026-05-06 16:21 53.36970 -2.28732 235 ft 1 kts 143°
2026-05-06 16:21 53.36977 -2.28740 235 ft 1 kts 169°
2026-05-06 16:22 53.36985 -2.28740 237 ft 1 kts 208°
2026-05-06 16:22 53.36988 -2.28738 237 ft 0 kts 221°
2026-05-06 16:22 53.36990 -2.28736 232 ft 0 kts 221°
2026-05-06 16:24 53.36985 -2.28743 232 ft 3 kts 221°
2026-05-06 16:24 53.36948 -2.28805 234 ft 12 kts 225°
2026-05-06 16:24 53.36875 -2.28930 235 ft 17 kts 225°
2026-05-06 16:25 53.36766 -2.29041 232 ft 18 kts 189°
2026-05-06 16:25 53.36732 -2.29024 232 ft 5 kts 135°
2026-05-06 16:25 53.36686 -2.28984 234 ft 2 kts 150°
2026-05-06 16:25 53.36666 -2.28953 232 ft 8 kts 135°
2026-05-06 16:26 53.36641 -2.28911 232 ft 2 kts 134°
2026-05-06 16:26 53.36638 -2.28906 232 ft 0 kts 134°
2026-05-06 16:28 53.36638 -2.28905 232 ft 1 kts 134°
2026-05-06 16:29 53.36608 -2.28853 232 ft 10 kts 131°
2026-05-06 16:29 53.36571 -2.28735 234 ft 13 kts 127°
2026-05-06 16:29 53.36502 -2.28615 232 ft 15 kts 135°
2026-05-06 16:29 53.36415 -2.28497 232 ft 15 kts 171°
2026-05-06 16:30 53.36328 -2.28476 235 ft 13 kts 130°
2026-05-06 16:30 53.36282 -2.28396 232 ft 15 kts 134°
2026-05-06 16:30 53.36175 -2.28213 232 ft 19 kts 134°
2026-05-06 16:30 53.36079 -2.28048 232 ft 21 kts 134°
2026-05-06 16:31 53.35980 -2.27881 234 ft 18 kts 140°
2026-05-06 16:31 53.35859 -2.27856 232 ft 18 kts 186°
2026-05-06 16:31 53.35724 -2.27880 232 ft 20 kts 185°
2026-05-06 16:31 53.35632 -2.27894 232 ft 0 kts 187°
2026-05-06 16:32 53.35580 -2.27989 232 ft 20 kts 232°
2026-05-06 16:32 53.35462 -2.28143 234 ft 24 kts 197°
2026-05-06 16:32 53.35301 -2.28211 235 ft 25 kts 208°
2026-05-06 16:32 53.35173 -2.28420 234 ft 27 kts 231°
2026-05-06 16:33 53.35061 -2.28652 232 ft 19 kts 231°
2026-05-06 16:33 53.34965 -2.28826 232 ft 21 kts 226°
2026-05-06 16:33 53.34884 -2.28968 234 ft 16 kts 226°
2026-05-06 16:34 53.34692 -2.29017 233 ft 18 kts 141°
2026-05-06 16:34 53.34680 -2.28934 235 ft 0 kts 51°
2026-05-06 16:35 53.34688 -2.28916 233 ft 9 kts 51°
2026-05-06 16:35 53.34877 -2.28524 237 ft 79 kts 51°
2026-05-06 16:35 53.35354 -2.27541 237 ft 135 kts 50°
2026-05-06 16:36 53.35998 -2.26202 581 ft 150 kts 52°
2026-05-06 16:36 53.36602 -2.24945 1120 ft 153 kts 51°
2026-05-06 16:36 53.37199 -2.23697 1759 ft 154 kts 49°
2026-05-06 16:36 53.37777 -2.22056 2059 ft 172 kts 71°
2026-05-06 16:37 53.37720 -2.20038 2085 ft 189 kts 114°
2026-05-06 16:37 53.36714 -2.18377 2162 ft 226 kts 148°
2026-05-06 16:37 53.35206 -2.17139 2608 ft 255 kts 160°
2026-05-06 16:37 53.33443 -2.16746 3515 ft 263 kts 183°
2026-05-06 16:38 53.31617 -2.17119 4632 ft 266 kts 186°
2026-05-06 16:38 53.29765 -2.17463 5671 ft 270 kts 185°
2026-05-06 16:38 53.27877 -2.17781 6674 ft 275 kts 185°
2026-05-06 16:38 53.25948 -2.18087 7625 ft 281 kts 185°
2026-05-06 16:39 53.23986 -2.18390 8604 ft 286 kts 186°
2026-05-06 16:39 53.21994 -2.18693 9618 ft 289 kts 187°
2026-05-06 16:39 53.19960 -2.19003 10471 ft 299 kts 187°
2026-05-06 16:39 53.17812 -2.19340 10871 ft 322 kts 187°
2026-05-06 16:40 53.15500 -2.19534 11287 ft 343 kts 178°
2026-05-06 16:40 53.13154 -2.18925 12090 ft 350 kts 166°
2026-05-06 16:40 53.10863 -2.17523 12977 ft 354 kts 158°
2026-05-06 16:40 53.08574 -2.15920 13831 ft 359 kts 158°
2026-05-06 16:41 53.06248 -2.14301 14599 ft 363 kts 159°
2026-05-06 16:41 53.03912 -2.12680 15385 ft 367 kts 159°
2026-05-06 16:41 53.01541 -2.11040 16149 ft 371 kts 159°
2026-05-06 16:41 52.99145 -2.09388 16918 ft 374 kts 159°
2026-05-06 16:42 52.96731 -2.07728 17650 ft 379 kts 159°
2026-05-06 16:42 52.94285 -2.06046 18380 ft 382 kts 159°
2026-05-06 16:42 52.91846 -2.04371 18825 ft 385 kts 159°
2026-05-06 16:42 52.89366 -2.02670 18985 ft 386 kts 159°
2026-05-06 16:43 52.86884 -2.00971 19019 ft 386 kts 159°
2026-05-06 16:43 52.84410 -1.99279 19015 ft 386 kts 159°
2026-05-06 16:43 52.81927 -1.97583 19024 ft 385 kts 159°
2026-05-06 16:43 52.79447 -1.95891 19020 ft 385 kts 159°
2026-05-06 16:44 52.76966 -1.94201 19017 ft 386 kts 159°
2026-05-06 16:44 52.74489 -1.92516 19013 ft 385 kts 159°
2026-05-06 16:44 52.72004 -1.90828 19017 ft 385 kts 159°
2026-05-06 16:44 52.69818 -1.89345 19011 ft 385 kts 159°
2026-05-06 16:45 52.67379 -1.87692 19016 ft 385 kts 159°
2026-05-06 16:45 52.64894 -1.86010 19012 ft 385 kts 159°
2026-05-06 16:45 52.62421 -1.84337 19021 ft 385 kts 159°
2026-05-06 16:45 52.59934 -1.82658 19016 ft 385 kts 159°
2026-05-06 16:46 52.57460 -1.80989 19024 ft 385 kts 159°
2026-05-06 16:46 52.54985 -1.79321 19017 ft 385 kts 159°
2026-05-06 16:46 52.52505 -1.77653 19019 ft 385 kts 159°
2026-05-06 16:46 52.50031 -1.75990 19030 ft 385 kts 159°
2026-05-06 16:47 52.47582 -1.74345 19015 ft 385 kts 159°
2026-05-06 16:47 52.45108 -1.72686 19013 ft 385 kts 159°
2026-05-06 16:47 52.42630 -1.71026 19025 ft 385 kts 159°
2026-05-06 16:47 52.40157 -1.69372 19022 ft 385 kts 159°
2026-05-06 16:48 52.37686 -1.67686 19012 ft 385 kts 156°
2026-05-06 16:48 52.35331 -1.65566 19021 ft 387 kts 148°
2026-05-06 16:48 52.33181 -1.62927 19017 ft 388 kts 140°
2026-05-06 16:48 52.31173 -1.60059 19017 ft 388 kts 140°
2026-05-06 16:49 52.29148 -1.57180 19014 ft 388 kts 140°
2026-05-06 16:49 52.27106 -1.54292 19016 ft 388 kts 140°
2026-05-06 16:49 52.25066 -1.51418 19018 ft 387 kts 141°
2026-05-06 16:49 52.23023 -1.48546 19018 ft 387 kts 141°
2026-05-06 16:50 52.20979 -1.45677 19021 ft 388 kts 141°
2026-05-06 16:50 52.18933 -1.42814 19013 ft 387 kts 141°
2026-05-06 16:50 52.16886 -1.39954 19019 ft 387 kts 141°
2026-05-06 16:50 52.15531 -1.38064 19020 ft 388 kts 141°
2026-05-06 16:51 52.12834 -1.34305 18774 ft 386 kts 141°
2026-05-06 16:51 52.10814 -1.31493 18159 ft 390 kts 141°
2026-05-06 16:51 52.08707 -1.28564 17193 ft 396 kts 140°
2026-05-06 16:51 52.06593 -1.25630 16126 ft 404 kts 140°
2026-05-06 16:52 52.04459 -1.22671 15476 ft 400 kts 140°
2026-05-06 16:52 52.03076 -1.20752 15259 ft 391 kts 140°
2026-05-06 16:52 52.00735 -1.17507 15047 ft 373 kts 140°
2026-05-06 16:52 51.98803 -1.14835 14996 ft 355 kts 141°
2026-05-06 16:53 51.96969 -1.12302 14992 ft 338 kts 141°
2026-05-06 16:53 51.95224 -1.09894 14976 ft 321 kts 141°
2026-05-06 16:53 51.93578 -1.07625 14868 ft 309 kts 141°
2026-05-06 16:53 51.91967 -1.05407 14767 ft 297 kts 141°
2026-05-06 16:54 51.90421 -1.03281 14642 ft 287 kts 141°
2026-05-06 16:54 51.88909 -1.01205 14321 ft 285 kts 141°
2026-05-06 16:54 51.87397 -0.99132 13979 ft 284 kts 141°
2026-05-06 16:54 51.85926 -0.97022 13612 ft 283 kts 134°
2026-05-06 16:55 51.84744 -0.94481 13217 ft 283 kts 120°
2026-05-06 16:55 51.83872 -0.91633 12845 ft 282 kts 116°
2026-05-06 16:55 51.83018 -0.88799 12500 ft 280 kts 116°
2026-05-06 16:55 51.82163 -0.85986 12129 ft 279 kts 116°
2026-05-06 16:56 51.81308 -0.83187 11781 ft 277 kts 116°
2026-05-06 16:56 51.80465 -0.80448 11442 ft 275 kts 116°
2026-05-06 16:56 51.79614 -0.77690 11099 ft 273 kts 116°
2026-05-06 16:56 51.78770 -0.74947 10769 ft 272 kts 116°
2026-05-06 16:57 51.77933 -0.72223 10431 ft 270 kts 116°
2026-05-06 16:57 51.77097 -0.69508 10112 ft 269 kts 115°
2026-05-06 16:57 51.76273 -0.66819 9775 ft 268 kts 115°
2026-05-06 16:57 51.75468 -0.64199 9430 ft 266 kts 115°
2026-05-06 16:58 51.74624 -0.61473 9078 ft 264 kts 115°
2026-05-06 16:58 51.73821 -0.58888 8948 ft 254 kts 115°
2026-05-06 16:58 51.73048 -0.56394 8717 ft 250 kts 115°
2026-05-06 16:58 51.72266 -0.53904 8421 ft 249 kts 120°
2026-05-06 16:59 51.71074 -0.51943 8173 ft 245 kts 151°
2026-05-06 16:59 51.69455 -0.51239 7919 ft 241 kts 182°
2026-05-06 16:59 51.67877 -0.51961 7619 ft 237 kts 215°
2026-05-06 16:59 51.66771 -0.53904 7356 ft 237 kts 247°
2026-05-06 17:00 51.66442 -0.56443 7138 ft 231 kts 275°
2026-05-06 17:00 51.66819 -0.58913 7014 ft 228 kts 298°
2026-05-06 17:00 51.67554 -0.61170 7004 ft 228 kts 298°
2026-05-06 17:00 51.68246 -0.63471 7003 ft 228 kts 297°
2026-05-06 17:01 51.68904 -0.65760 7000 ft 229 kts 296°
2026-05-06 17:01 51.69568 -0.68091 6998 ft 228 kts 296°
2026-05-06 17:01 51.70352 -0.70292 7000 ft 226 kts 314°
2026-05-06 17:01 51.71636 -0.71701 7001 ft 224 kts 343°
2026-05-06 17:02 51.73169 -0.71920 7001 ft 224 kts 11°
2026-05-06 17:02 51.74593 -0.70902 7005 ft 227 kts 39°
2026-05-06 17:02 51.75532 -0.68873 7000 ft 229 kts 68°
2026-05-06 17:02 51.75737 -0.66332 7004 ft 234 kts 97°
2026-05-06 17:03 51.75192 -0.63864 7000 ft 236 kts 114°
2026-05-06 17:03 51.74501 -0.61485 7004 ft 236 kts 114°
2026-05-06 17:03 51.74032 -0.59867 7001 ft 236 kts 114°
2026-05-06 17:03 51.73291 -0.57324 7037 ft 236 kts 114°
2026-05-06 17:04 51.72577 -0.54947 7034 ft 235 kts 114°
2026-05-06 17:04 51.71679 -0.52767 6857 ft 237 kts 137°
2026-05-06 17:04 51.70211 -0.51542 6470 ft 243 kts 169°
2026-05-06 17:04 51.68521 -0.51732 6096 ft 256 kts 200°
2026-05-06 17:05 51.66782 -0.52868 6001 ft 272 kts 201°
2026-05-06 17:05 51.65061 -0.53842 5923 ft 260 kts 202°
2026-05-06 17:05 51.63596 -0.55387 5793 ft 248 kts 226°
2026-05-06 17:05 51.62461 -0.57431 5531 ft 243 kts 237°
2026-05-06 17:06 51.61590 -0.59748 5202 ft 241 kts 250°
2026-05-06 17:06 51.61235 -0.62359 4878 ft 239 kts 264°
2026-05-06 17:06 51.61000 -0.64992 4590 ft 238 kts 264°
2026-05-06 17:06 51.60764 -0.67636 4295 ft 237 kts 264°
2026-05-06 17:07 51.60528 -0.70245 4023 ft 236 kts 263°
2026-05-06 17:07 51.60057 -0.72778 3734 ft 237 kts 249°
2026-05-06 17:07 51.59417 -0.75217 3461 ft 236 kts 249°
2026-05-06 17:07 51.58778 -0.77638 3184 ft 235 kts 249°
2026-05-06 17:08 51.57889 -0.79725 3010 ft 231 kts 220°
2026-05-06 17:08 51.56443 -0.81023 2998 ft 242 kts 205°
2026-05-06 17:08 51.54909 -0.82074 2996 ft 238 kts 194°
2026-05-06 17:08 51.53263 -0.82442 3011 ft 242 kts 185°
2026-05-06 17:09 51.51591 -0.82692 2986 ft 240 kts 185°
2026-05-06 17:09 51.49955 -0.82687 2990 ft 233 kts 163°
2026-05-06 17:09 51.48604 -0.81316 3001 ft 234 kts 126°
2026-05-06 17:09 51.47917 -0.79013 3003 ft 228 kts 101°
2026-05-06 17:10 51.47692 -0.76517 3000 ft 228 kts 90°
2026-05-06 17:10 51.47655 -0.73994 3002 ft 225 kts 87°
2026-05-06 17:10 51.47665 -0.71501 2978 ft 227 kts 87°
2026-05-06 17:10 51.47676 -0.68981 2705 ft 226 kts 87°
2026-05-06 17:11 51.47684 -0.66530 2389 ft 214 kts 87°
2026-05-06 17:11 51.47690 -0.64219 2100 ft 201 kts 87°
2026-05-06 17:11 51.47699 -0.62077 1872 ft 184 kts 86°
2026-05-06 17:11 51.47706 -0.60116 1607 ft 168 kts 86°
2026-05-06 17:12 51.47714 -0.58319 1382 ft 153 kts 87°
2026-05-06 17:12 51.47715 -0.56673 1166 ft 143 kts 86°
2026-05-06 17:12 51.47701 -0.55065 976 ft 144 kts 88°
2026-05-06 17:12 51.47696 -0.53467 768 ft 143 kts 86°
2026-05-06 17:13 51.47716 -0.51901 565 ft 143 kts 85°
2026-05-06 17:13 51.47744 -0.50298 367 ft 144 kts 86°
2026-05-06 17:13 51.47748 -0.48717 152 ft 141 kts 86°
2026-05-06 17:13 51.47757 -0.47186 89 ft 122 kts 89°
2026-05-06 17:14 51.47762 -0.46121 86 ft 79 kts 90°
2026-05-06 17:14 51.47739 -0.45506 89 ft 20 kts 126°
2026-05-06 17:14 51.47634 -0.45470 86 ft 12 kts 182°
2026-05-06 17:14 51.47613 -0.45478 90 ft 4 kts 208°
2026-05-06 17:15 51.47595 -0.45554 90 ft 10 kts 268°
2026-05-06 17:15 51.47594 -0.45695 88 ft 16 kts 269°
2026-05-06 17:15 51.47593 -0.45907 86 ft 23 kts 270°
2026-05-06 17:15 51.47594 -0.46186 90 ft 27 kts 269°
2026-05-06 17:16 51.47592 -0.46494 87 ft 29 kts 270°
2026-05-06 17:16 51.47589 -0.46807 87 ft 26 kts 265°
2026-05-06 17:16 51.47582 -0.47107 90 ft 28 kts 270°
2026-05-06 17:16 51.47581 -0.47428 88 ft 29 kts 270°
2026-05-06 17:17 51.47580 -0.47732 90 ft 23 kts 263°
2026-05-06 17:17 51.47579 -0.47945 90 ft 17 kts 270°
2026-05-06 17:17 51.47579 -0.48002 88 ft 2 kts 270°
2026-05-06 17:17 51.47579 -0.48073 90 ft 10 kts 269°
2026-05-06 17:18 51.47578 -0.48209 90 ft 14 kts 269°
2026-05-06 17:18 51.47577 -0.48386 88 ft 12 kts 270°
2026-05-06 17:18 51.47562 -0.48471 89 ft 0 kts 234°
2026-05-06 17:18 51.47561 -0.48473 91 ft 1 kts 230°
2026-05-06 17:19 51.47506 -0.48479 86 ft 15 kts 176°
2026-05-06 17:19 51.47444 -0.48478 86 ft 2 kts 180°
2026-05-06 17:19 51.47396 -0.48495 90 ft 9 kts 232°
2026-05-06 17:19 51.47399 -0.48587 87 ft 0 kts 261°
2026-05-06 17:20 51.47399 -0.48598 88 ft 0 kts 266°